sat.trackr.live / text

‹ back to catalog

STARLINK-34149

NORAD 64140 · 2025-111T

PAYLOAD ACTIVE UNKNOWN

§ Identity

Operator
Country
US
Launch date
2025-05-24
Launch site
AFETR
Launch vehicle
Mass (kg)
RCS (m²)

Purposes: comms

External: N2YO · Heavens-Above · Gunter

§ Orbital elements

Epoch: 2026-05-24T23:51:45.913824Z

Period
94.27 min
Inclination
43.0030°
Eccentricity
0.0001284
Mean motion
15.27582241 rev/d
Perigee alt
482.2 km
Apogee alt
483.9 km
Semi-major
6,861.2 km
B*
2.7959e-4
RAAN
6.9020°
Arg perigee
270.9009°
Mean anomaly
89.1696°
Rev number
5,713

§ Raw data

STARLINK-341491 64140U 25111T   26144.99428141  .00007440  00000+0  27959-3 0  99992 64140  43.0030   6.9020 0001284 270.9009  89.1696 15.27582241 57138

JSON: /api/v1/satellites/64140 · /tle

For live sub-satellite position, see the globe view (requires WebGL).

§ Visibility from observer

Set your observer location to see the next 7 days of passes ≥ 10°. The values pass through the URL so the page stays shareable.

No JS? Fill the form by hand. The geolocation button needs JavaScript.